Flag for Canada Weather past 2 weeks in Markham, Ontario, Canada

Now
46 °F

Partly sunny.


Feels Like: 46 °F
Forecast: 38 / 71 °F
Wind: No wind

Location: Toronto Buttonville


UV Index: 3 (Moderate)

Visibility: 15 mi


Pressure: 30.06 "Hg

Humidity: 66%

Dew point: 36 °F

Location of MarkhamLocation

Historic Weather in Markham

°F

Markham temperature yesterday

Maximum temperature yesterday: 55 °F (at 3:00 PM)
Minimum temperature yesterday: 30 °F (at 5:00 AM)
Average temperature yesterday: 44 °F

Past Weeks' High & Low Weather Summary

 TemperatureHumidityPressure
High70 °F (Apr 13, 5:00 PM)100% (Apr 8, 2:00 AM)30.58 "Hg (Apr 8, 2:00 AM)
Low19 °F (Apr 16, 5:00 AM)25% (Apr 11, 2:00 PM)29.33 "Hg (Apr 8, 6:00 AM)
Average43 °F65%30.04 "Hg
* Reported Apr 6 7:00 AM — Apr 21 7:00 AM, Markham, Weather by CustomWeather, © 2014

Note: Actual official high and low records may vary slightly from our data, if they occured in-between our weather recording intervals... More about our weather records

Advertising

Historic Weather Conditions — Data for Previous 24 hours

 ConditionsComfort  
Time TempWeatherWind HumidityBarometerVisibility
7:00 AM
Apr 21
45 °FPassing clouds.No wind66%30.06 "Hg15 mi
6:00 AM43 °FPassing clouds.No wind71%30.06 "Hg15 mi
5:00 AM41 °FPassing clouds.No wind76%30.07 "Hg15 mi
4:00 AM43 °FPassing clouds.2 mph66%30.09 "Hg15 mi
3:00 AM43 °FPassing clouds.No wind66%30.10 "Hg15 mi
2:00 AM43 °FPassing clouds.No wind66%30.11 "Hg15 mi
1:00 AM43 °FPassing clouds.No wind71%30.14 "Hg15 mi
12:00 AM45 °FPassing clouds.No wind61%30.16 "Hg15 mi
11:00 PM
Apr 20
45 °FPassing clouds.No wind57%30.18 "Hg15 mi
10:00 PM45 °FPassing clouds.2 mph53%30.20 "Hg15 mi
9:00 PM46 °FPartly sunny.2 mph50%30.21 "Hg15 mi
8:00 PM48 °FPartly sunny.3 mph46%30.22 "Hg15 mi
7:00 PM50 °FPartly sunny.8 mph47%30.22 "Hg15 mi
6:00 PM52 °FPartly sunny.7 mph44%30.24 "Hg15 mi
5:00 PM54 °FPartly sunny.8 mph41%30.27 "Hg15 mi
4:00 PM55 °FBroken clouds.9 mph38%30.28 "Hg15 mi
3:00 PM55 °FScattered clouds.10 mph41%30.30 "Hg15 mi
2:00 PM54 °FPassing clouds.12 mph44%30.33 "Hg15 mi
1:00 PM52 °FPassing clouds.9 mph47%30.35 "Hg15 mi
12:00 PM52 °FPartly sunny.12 mph44%30.38 "Hg15 mi
11:00 AM50 °FPartly sunny.13 mph47%30.40 "Hg15 mi
10:00 AM48 °FPartly sunny.10 mph46%30.41 "Hg15 mi
9:00 AM45 °FPartly sunny.9 mph57%30.42 "Hg15 mi
8:00 AM39 °FPartly sunny.7 mph65%30.42 "Hg15 mi
Weather by CustomWeather, © 2014

See weather overview